Location: Newark
(41.6500°N, 71.4833°W)
Time: 05:40:57
(UTC+00:00)

A-11 Canister half - Pass Details

Date: 28 January 2020
Orbit: 1517 x 1683 km, 47.2° (Epoch: 19 February)

Event Time Altitude Azimuth Distance (km) Brightness Sun altitude
Rises 11:49:51 0° 290° (WNW) 4,664 - -2.9°
Exits shadow 11:51:00 - 286° (WNW) 4,374 10.7 -2.7°
Reaches altitude 10° 11:54:08 10° 272° (W) 3,685 10.4 -2.2°
Maximum altitude 11:59:44 18° 234° (SW) 3,121 10.4 -1.2°
Drops below altitude 10° 12:05:24 10° 196° (SSW) 3,724 11.2 -0.3°
Sets 12:09:49 0° 179° (S) 4,731 12.0 0.5°
